| time (UTC) | temp F | wind direction | speed knots | gust knots | rain 1hr in | rain 24hr in | rain mn in | humidity % | barometer mb |
| 20260504234320 | 79 | 267 | 5.2 | 12.2 | 0.00 | 0.03 | 0.03 | 54 | 1002.4 |
| 20260504233820 | 79 | 213 | 3.5 | 8.7 | 0.00 | 0.03 | 0.03 | 54 | 1002.6 |
| 20260504233546 | 79 | 226 | 1.7 | 9.6 | 0.00 | 0.03 | 0.03 | 56 | 1002.3 |
| 20260504232819 | 79 | 225 | 4.3 | 12.2 | 0.00 | 0.03 | 0.03 | 56 | 1002.3 |
| 20260504232320 | 79 | 227 | 4.3 | 13.0 | 0.00 | 0.03 | 0.03 | 56 | 1002.4 |
| 20260504231820 | 79 | 181 | 2.6 | 13.0 | 0.00 | 0.03 | 0.03 | 55 | 1002.4 |
| 20260504231546 | 79 | 231 | 2.6 | 13.9 | 0.00 | 0.03 | 0.03 | 55 | 1002.3 |
| 20260504230819 | 79 | 218 | 9.6 | 13.9 | 0.00 | 0.03 | 0.03 | 54 | 1002.4 |
| 20260504230319 | 79 | 211 | 7.0 | 13.9 | 0.00 | 0.03 | 0.03 | 54 | 1002.0 |
| 20260504225820 | 79 | 226 | 3.5 | 20.0 | 0.00 | 0.03 | 0.03 | 54 | 1002.4 |
| 20260504225320 | 79 | 239 | 9.6 | 20.0 | 0.00 | 0.03 | 0.03 | 53 | 1002.4 |
| 20260504224820 | 80 | 273 | 3.5 | 18.2 | 0.00 | 0.03 | 0.03 | 53 | 1002.4 |
| 20260504224319 | 80 | 254 | 5.2 | 19.1 | 0.00 | 0.03 | 0.03 | 53 | 1002.3 |
| 20260504223819 | 80 | 258 | 6.1 | 19.1 | 0.00 | 0.03 | 0.03 | 52 | 1002.3 |
| 20260504223320 | 80 | 236 | 7.0 | 16.5 | 0.00 | 0.03 | 0.03 | 53 | 1002.1 |
| 20260504222820 | 80 | 216 | 6.1 | 15.6 | 0.00 | 0.03 | 0.03 | 53 | 1002.4 |
| 20260504222320 | 80 | 197 | 6.1 | 15.6 | 0.00 | 0.03 | 0.03 | 53 | 1002.1 |
| 20260504221820 | 81 | 171 | 7.8 | 15.6 | 0.00 | 0.03 | 0.03 | 53 | 1002.3 |
| 20260504221319 | 81 | 269 | 8.7 | 14.8 | 0.00 | 0.03 | 0.03 | 52 | 1002.3 |
| 20260504220819 | 81 | 216 | 7.0 | 13.0 | 0.00 | 0.03 | 0.03 | 52 | 1002.4 |
| 20260504220319 | 81 | 231 | 9.6 | 15.6 | 0.00 | 0.03 | 0.03 | 52 | 1002.3 |
| 20260504215819 | 81 | 261 | 1.7 | 20.9 | 0.00 | 0.03 | 0.03 | 53 | 1002.5 |
| 20260504215319 | 81 | 168 | 3.5 | 25.2 | 0.00 | 0.03 | 0.03 | 50 | 1002.3 |
| 20260504214820 | 80 | 261 | 3.5 | 25.2 | 0.00 | 0.03 | 0.03 | 54 | 1002.1 |
| 20260504214320 | 80 | 256 | 12.2 | 19.1 | 0.00 | 0.03 | 0.03 | 53 | 1002.3 |
| 20260504213814 | 80 | 246 | 6.1 | 23.5 | 0.00 | 0.03 | 0.03 | 53 | 1002.3 |
| 20260504213316 | 80 | 237 | 12.2 | 23.5 | 0.00 | 0.03 | 0.03 | 52 | 1002.3 |
| 20260504212815 | 80 | 233 | 7.8 | 26.1 | 0.00 | 0.03 | 0.03 | 53 | 1002.3 |
| 20260504212315 | 81 | 223 | 8.7 | 27.8 | 0.00 | 0.03 | 0.03 | 52 | 1002.4 |
| 20260504212033 | 80 | 225 | 10.4 | 29.5 | 0.00 | 0.03 | 0.03 | 51 | 1002.1 |
| 20260504211316 | 81 | 237 | 5.2 | 29.5 | 0.00 | 0.03 | 0.03 | 51 | 1002.5 |
| 20260504210804 | 81 | 207 | 9.6 | 23.5 | 0.00 | 0.03 | 0.03 | 50 | 1002.5 |
| 20260504210528 | 81 | 197 | 4.3 | 23.5 | 0.00 | 0.03 | 0.03 | 52 | 1002.3 |
| 20260504205803 | 81 | 247 | 5.2 | 21.7 | 0.00 | 0.03 | 0.03 | 54 | 1002.6 |
| 20260504205304 | 80 | 280 | 6.1 | 21.7 | 0.00 | 0.03 | 0.03 | 54 | 1002.5 |
| 20260504204803 | 80 | 255 | 3.5 | 21.7 | 0.00 | 0.03 | 0.03 | 54 | 1002.7 |
| 20260504204304 | 79 | 215 | 8.7 | 22.6 | 0.00 | 0.03 | 0.03 | 53 | 1002.5 |
| 20260504203803 | 79 | 254 | 13.0 | 22.6 | 0.00 | 0.03 | 0.03 | 55 | 1002.8 |
| 20260504203249 | 79 | 248 | 13.0 | 20.9 | 0.00 | 0.03 | 0.03 | 53 | 1002.9 |
| 20260504202748 | 80 | 209 | 11.3 | 20.9 | 0.00 | 0.03 | 0.03 | 52 | 1003.1 |
| 20260504202249 | 80 | 250 | 7.0 | 18.2 | 0.00 | 0.03 | 0.03 | 54 | 1002.7 |
| 20260504201748 | 80 | 226 | 9.6 | 16.5 | 0.00 | 0.03 | 0.03 | 52 | 1002.9 |
| 20260504201248 | 80 | 236 | 5.2 | 16.5 | 0.00 | 0.03 | 0.03 | 52 | 1002.9 |
| 20260504200749 | 80 | 220 | 2.6 | 19.1 | 0.00 | 0.03 | 0.03 | 51 | 1002.9 |
| 20260504200508 | 80 | 182 | 7.0 | 18.2 | 0.00 | 0.03 | 0.03 | 52 | 1002.9 |
| 20260504195748 | 80 | 211 | 12.2 | 18.2 | 0.00 | 0.03 | 0.03 | 52 | 1003.0 |
| 20260504195515 | 80 | 218 | 6.1 | 19.1 | 0.00 | 0.03 | 0.03 | 53 | 1003.1 |
| 20260504194748 | 80 | 182 | 3.5 | 19.1 | 0.00 | 0.03 | 0.03 | 56 | 1003.0 |
| 20260504194249 | 79 | 174 | 3.5 | 13.0 | 0.00 | 0.03 | 0.03 | 55 | 1003.1 |
| 20260504193748 | 79 | 251 | 3.5 | 18.2 | 0.00 | 0.03 | 0.03 | 54 | 1003.2 |
| 20260504193249 | 79 | 241 | 5.2 | 18.2 | 0.00 | 0.03 | 0.03 | 54 | 1003.1 |
| 20260504192749 | 79 | 234 | 5.2 | 20.0 | 0.00 | 0.03 | 0.03 | 53 | 1003.1 |
| 20260504192249 | 78 | 247 | 11.3 | 20.0 | 0.00 | 0.03 | 0.03 | 54 | 1003.3 |
| 20260504191748 | 78 | 176 | 6.1 | 19.1 | 0.00 | 0.03 | 0.03 | 54 | 1003.4 |
| 20260504191741 | 77 | 243 | 6.1 | 19.1 | 0.00 | 0.03 | 0.03 | 57 | 1003.5 |
| 20260504190749 | 77 | 196 | 7.0 | 18.2 | 0.00 | 0.03 | 0.03 | 54 | 1003.5 |
| 20260504190248 | 77 | 169 | 5.2 | 15.6 | 0.00 | 0.03 | 0.03 | 53 | 1003.7 |
| 20260504185749 | 78 | 221 | 9.6 | 15.6 | 0.00 | 0.03 | 0.03 | 54 | 1003.7 |
| 20260504185248 | 78 | 281 | 7.0 | 14.8 | 0.00 | 0.03 | 0.03 | 51 | 1003.8 |
| 20260504185015 | 78 | 303 | 7.0 | 14.8 | 0.00 | 0.03 | 0.03 | 55 | 1003.9 |
| 20260504184249 | 78 | 235 | 7.8 | 14.8 | 0.00 | 0.03 | 0.03 | 53 | 1003.9 |
| 20260504183749 | 77 | 191 | 3.5 | 16.5 | 0.00 | 0.03 | 0.03 | 54 | 1003.8 |
| 20260504183248 | 78 | 211 | 12.2 | 20.0 | 0.00 | 0.03 | 0.03 | 53 | 1003.8 |
| 20260504182748 | 78 | 200 | 7.8 | 20.0 | 0.00 | 0.03 | 0.03 | 58 | 1004.1 |
| 20260504182249 | 78 | 222 | 7.8 | 15.6 | 0.00 | 0.03 | 0.03 | 55 | 1003.9 |
| 20260504181747 | 77 | 247 | 3.5 | 12.2 | 0.00 | 0.03 | 0.03 | 57 | 1003.9 |
| 20260504181247 | 76 | 188 | 5.2 | 12.2 | 0.00 | 0.03 | 0.03 | 60 | 1004.1 |
| 20260504180748 | 75 | 176 | 4.3 | 12.2 | 0.00 | 0.03 | 0.03 | 57 | 1004.3 |
| 20260504180247 | 76 | 209 | 7.0 | 16.5 | 0.00 | 0.03 | 0.03 | 57 | 1004.1 |
| 20260504175747 | 75 | 225 | 7.0 | 16.5 | 0.00 | 0.03 | 0.03 | 57 | 1004.4 |
| 20260504175248 | 76 | 143 | 7.0 | 18.2 | 0.00 | 0.03 | 0.03 | 55 | 1004.4 |
| 20260504174748 | 75 | 180 | 3.5 | 18.2 | 0.00 | 0.03 | 0.03 | 58 | 1004.4 |
| 20260504174513 | 75 | 249 | 7.8 | 14.8 | 0.00 | 0.03 | 0.03 | 56 | 1004.5 |
| 20260504174004 | 76 | 232 | 9.6 | 18.2 | 0.00 | 0.03 | 0.03 | 58 | 1004.6 |
| 20260504173248 | 76 | 180 | 7.0 | 18.2 | 0.00 | 0.03 | 0.03 | 56 | 1004.3 |
| 20260504172748 | 75 | 176 | 4.3 | 15.6 | 0.00 | 0.03 | 0.03 | 59 | 1004.3 |
| 20260504172507 | 75 | 256 | 2.6 | 15.6 | 0.00 | 0.03 | 0.03 | 59 | 1004.4 |
| 20260504171748 | 74 | 252 | 7.8 | 15.6 | 0.00 | 0.03 | 0.03 | 58 | 1004.6 |
| 20260504171248 | 74 | 245 | 4.3 | 15.6 | 0.00 | 0.03 | 0.03 | 60 | 1004.9 |
| 20260504171011 | 73 | 172 | 8.7 | 15.6 | 0.00 | 0.03 | 0.03 | 60 | 1005.0 |
| 20260504170248 | 73 | 291 | 7.0 | 13.0 | 0.00 | 0.03 | 0.03 | 59 | 1004.6 |
| 20260504160246 | 69 | 256 | 1.7 | 19.1 | 0.00 | 0.03 | 0.03 | 63 | 1005.0 |
| 20260504150749 | 64 | 288 | 2.6 | 7.0 | 0.00 | 0.03 | 0.03 | 76 | 1005.3 |
| 20260504150249 | 63 | 226 | 1.7 | 6.1 | 0.00 | 0.03 | 0.03 | 76 | 1005.2 |
| 20260504141234 | 62 | 229 | 7.0 | 12.2 | 0.00 | 0.03 | 0.03 | 83 | 1005.7 |
| 20260504140733 | 60 | 169 | 5.2 | 13.0 | 0.00 | 0.03 | 0.03 | 83 | 1005.9 |
| 20260504140233 | 59 | 161 | 7.0 | 13.0 | 0.00 | 0.03 | 0.03 | 84 | 1006.0 |
| 20260504130717 | 57 | 211 | 3.5 | 7.0 | 0.03 | 0.03 | 0.03 | 88 | 1006.8 |
| 20260504130217 | 57 | 227 | 3.5 | 6.1 | 0.03 | 0.03 | 0.03 | 87 | 1006.8 |
| 20260504120204 | 56 | 193 | 4.3 | 6.1 | 0.00 | 0.00 | 0.00 | 85 | 1007.0 |
| 20260504110205 | 56 | 204 | 1.7 | 3.5 | 0.00 | 0.00 | 0.00 | 84 | 1007.5 |
| 20260504110153 | 56 | 238 | 3.5 | 3.5 | 0.00 | 0.00 | 0.00 | 84 | 1007.7 |
| 20260504100152 | 58 | 195 | 0.9 | 1.7 | 0.00 | 0.00 | 0.00 | 80 | 1007.8 |
| 20260504081651 | 60 | 163 | 3.5 | 6.1 | 0.00 | 0.00 | 0.00 | 79 | 1006.7 |
| 20260504081401 | 60 | 164 | 3.5 | 5.2 | 0.00 | 0.00 | 0.00 | 81 | 1007.2 |
| 20260504080640 | 60 | 177 | 1.7 | 3.5 | 0.00 | 0.00 | 0.00 | 82 | 1007.5 |
| 20260504080140 | 59 | 255 | 0.0 | 2.6 | 0.00 | 0.00 | 0.00 | 85 | 1007.5 |
| 20260504070140 | 57 | 212 | 0.0 | 0.0 | 0.00 | 0.00 | 0.00 | 87 | 1008.3 |
| 20260504060142 | 57 | 211 | 0.0 | 0.0 | 0.00 | 0.00 | 0.00 | 87 | 1008.4 |
| 20260504050115 | 59 | 241 | 0.0 | 0.0 | 0.00 | 0.00 | 0.00 | 84 | 1008.5 |
| 20260504045615 | 59 | 242 | 0.0 | 0.0 | 0.00 | 0.00 | 0.00 | 84 | 1008.6 |
| 20260504045115 | 59 | 242 | 0.0 | 0.9 | 0.00 | 0.00 | 0.00 | 85 | 1008.7 |
| 20260504044616 | 58 | 243 | 0.0 | 1.7 | 0.00 | 0.00 | 0.00 | 85 | 1008.5 |
| 20260504044336 | 58 | 243 | 0.9 | 1.7 | 0.00 | 0.00 | 0.00 | 85 | 1008.9 |
| 20260504043618 | 58 | 260 | 0.0 | 0.9 | 0.00 | 0.00 | 0.00 | 85 | 1008.8 |
| 20260504043116 | 58 | 226 | 0.0 | 1.7 | 0.00 | 0.00 | 0.00 | 84 | 1008.7 |
| 20260504043058 | 58 | 226 | 0.0 | 1.7 | 0.00 | 0.00 | 0.00 | 84 | 1008.9 |
| 20260504042116 | 59 | 226 | 0.0 | 2.6 | 0.00 | 0.00 | 0.00 | 83 | 1008.9 |
| 20260504041616 | 59 | 226 | 0.9 | 2.6 | 0.00 | 0.00 | 0.00 | 83 | 1008.9 |
| 20260504041115 | 59 | 226 | 0.0 | 1.7 | 0.00 | 0.00 | 0.00 | 82 | 1008.9 |
| 20260504040616 | 60 | 226 | 0.0 | 1.7 | 0.00 | 0.00 | 0.00 | 81 | 1009.3 |
| 20260504040116 | 60 | 226 | 0.9 | 0.9 | 0.00 | 0.00 | 0.00 | 80 | 1009.1 |
| 20260504035615 | 60 | 226 | 0.0 | 1.7 | 0.00 | 0.00 | 0.00 | 80 | 1009.2 |
| 20260504035116 | 61 | 226 | 0.0 | 1.7 | 0.00 | 0.00 | 0.00 | 79 | 1009.3 |
| 20260504034616 | 61 | 226 | 0.0 | 1.7 | 0.00 | 0.00 | 0.00 | 79 | 1009.2 |
| 20260504034115 | 61 | 226 | 0.9 | 1.7 | 0.00 | 0.00 | 0.00 | 79 | 1009.6 |
| 20260504033615 | 61 | 225 | 1.7 | 1.7 | 0.00 | 0.00 | 0.00 | 78 | 1009.3 |
| 20260504033116 | 62 | 279 | 0.0 | 0.0 | 0.00 | 0.00 | 0.00 | 76 | 1009.5 |
| 20260504032616 | 62 | 279 | 0.0 | 0.9 | 0.00 | 0.00 | 0.00 | 75 | 1009.4 |
| 20260504032116 | 63 | 279 | 0.0 | 1.7 | 0.00 | 0.00 | 0.00 | 74 | 1009.5 |
| 20260504031841 | 63 | 279 | 0.0 | 2.6 | 0.00 | 0.00 | 0.00 | 74 | 1009.7 |
| 20260504031115 | 63 | 279 | 0.9 | 2.6 | 0.00 | 0.00 | 0.00 | 74 | 1009.6 |
| 20260504030615 | 63 | 279 | 0.9 | 3.5 | 0.00 | 0.00 | 0.00 | 73 | 1009.6 |
| 20260504030116 | 63 | 280 | 0.0 | 5.2 | 0.00 | 0.00 | 0.00 | 73 | 1009.6 |
| 20260504025837 | 63 | 288 | 2.6 | 5.2 | 0.00 | 0.00 | 0.00 | 74 | 1009.6 |
| 20260504025333 | 63 | 288 | 0.9 | 2.6 | 0.00 | 0.00 | 0.00 | 73 | 1009.5 |
| 20260504024616 | 64 | 230 | 0.0 | 0.0 | 0.00 | 0.00 | 0.00 | 72 | 1009.4 |
| 20260504024115 | 64 | 230 | 0.0 | 0.0 | 0.00 | 0.00 | 0.00 | 72 | 1009.4 |
| 20260504023616 | 65 | 230 | 0.0 | 0.0 | 0.00 | 0.00 | 0.00 | 71 | 1009.1 |
| 20260504023116 | 65 | 230 | 0.0 | 0.0 | 0.00 | 0.00 | 0.00 | 70 | 1009.3 |
| 20260504022844 | 66 | 230 | 0.0 | 1.7 | 0.00 | 0.00 | 0.00 | 69 | 1009.2 |
| 20260504022115 | 66 | 230 | 0.0 | 2.6 | 0.00 | 0.00 | 0.00 | 69 | 1009.4 |
| 20260504021838 | 66 | 230 | 1.7 | 2.6 | 0.00 | 0.00 | 0.00 | 69 | 1009.5 |
| 20260504021116 | 65 | 277 | 1.7 | 2.6 | 0.00 | 0.00 | 0.00 | 71 | 1009.4 |
| 20260504020616 | 65 | 336 | 0.0 | 0.9 | 0.00 | 0.00 | 0.00 | 70 | 1008.8 |
| 20260504020342 | 65 | 336 | 0.0 | 3.5 | 0.00 | 0.00 | 0.00 | 69 | 1009.1 |
| 20260504015603 | 65 | 336 | 0.9 | 6.1 | 0.00 | 0.00 | 0.00 | 69 | 1009.2 |
| 20260504015103 | 65 | 16 | 3.5 | 6.1 | 0.00 | 0.00 | 0.00 | 69 | 1009.2 |
| 20260504014604 | 66 | 233 | 0.0 | 0.0 | 0.00 | 0.00 | 0.00 | 66 | 1009.0 |
| 20260504014319 | 66 | 233 | 0.0 | 0.0 | 0.00 | 0.00 | 0.00 | 66 | 1008.8 |
| 20260504013555 | 66 | 233 | 0.0 | 0.0 | 0.00 | 0.00 | 0.00 | 65 | 1009.1 |
| 20260504013054 | 67 | 233 | 0.0 | 0.0 | 0.00 | 0.00 | 0.00 | 64 | 1009.0 |
| 20260504012554 | 67 | 233 | 0.0 | 0.0 | 0.00 | 0.00 | 0.00 | 64 | 1009.1 |
| 20260504012312 | 67 | 233 | 0.0 | 0.0 | 0.00 | 0.00 | 0.00 | 63 | 1009.1 |
| 20260504011554 | 68 | 233 | 0.0 | 0.0 | 0.00 | 0.00 | 0.00 | 63 | 1009.1 |
| 20260504011054 | 68 | 233 | 0.0 | 0.0 | 0.00 | 0.00 | 0.00 | 62 | 1008.9 |
| 20260504010820 | 69 | 233 | 0.0 | 0.9 | 0.00 | 0.00 | 0.00 | 61 | 1008.8 |
| 20260504010054 | 69 | 233 | 0.0 | 0.9 | 0.00 | 0.00 | 0.00 | 60 | 1008.9 |
| 20260504005554 | 70 | 233 | 0.0 | 0.0 | 0.00 | 0.00 | 0.00 | 58 | 1008.9 |
| 20260504005053 | 70 | 233 | 0.0 | 0.0 | 0.00 | 0.00 | 0.00 | 57 | 1008.7 |
| 20260504004553 | 71 | 233 | 0.0 | 0.9 | 0.00 | 0.00 | 0.00 | 56 | 1009.1 |
| 20260504004054 | 71 | 233 | 0.0 | 0.9 | 0.00 | 0.00 | 0.00 | 55 | 1008.9 |
| 20260504003550 | 72 | 233 | 0.0 | 2.6 | 0.00 | 0.00 | 0.00 | 54 | 1009.0 |
| 20260504003051 | 72 | 230 | 1.7 | 2.6 | 0.00 | 0.00 | 0.00 | 54 | 1009.0 |
| 20260504002551 | 73 | 240 | 1.7 | 3.5 | 0.00 | 0.00 | 0.00 | 53 | 1008.7 |
| 20260504002050 | 74 | 219 | 0.0 | 3.5 | 0.00 | 0.00 | 0.00 | 51 | 1009.1 |
| 20260504001811 | 74 | 244 | 0.9 | 8.7 | 0.00 | 0.00 | 0.00 | 50 | 1008.8 |
| 20260504001050 | 74 | 249 | 3.5 | 8.7 | 0.00 | 0.00 | 0.00 | 49 | 1008.9 |
| 20260504000551 | 75 | 208 | 1.7 | 6.1 | 0.00 | 0.00 | 0.00 | 49 | 1008.8 |
| 20260504000051 | 75 | 347 | 1.7 | 7.8 | 0.00 | 0.00 | 0.00 | 51 | 1009.2 |
| 20260503235551 | 75 | 285 | 1.7 | 7.8 | 0.00 | 0.00 | 0.00 | 49 | 1009.0 |
| 20260503235051 | 75 | 180 | 1.7 | 7.8 | 0.00 | 0.00 | 0.00 | 49 | 1009.1 |